Погода в Новоуральске

Россия / Свердловская область     57°14′50″N   60°05′44″E
темп.,
°C
ветер,
м/с
пор.,
м/с
влажн.,
%
обл.,
%
осадки,
мм/ч
давл.,
гПа
погр.,
м
12 мая, ср
ср1223:00+16сз116094 0.0 102721
02:00+12ссз11775 0.0 102712
05:00+10ссз119152 0.0 102910
08:00+15с227019 0.0 1029427
11:00+19с23390 0.0 10291224
14:00+22с343255 0.0 10281934
17:00+22с333316 0.0 10272122
20:00+18ссв1150100 0.0 102711
13 мая, чт
чт1323:00+14з1160100 0.0 102811
02:00+13з116595 0.0 102811
05:00+12з117162 0.0 102810
08:00+18з135271 0.0 1028258
11:00+22сз34365 0.0 10271488
14:00+25сз35308 0.0 10261894
17:00+25ссз34299 0.0 10262109
20:00+21сз22475 0.0 102612
14 мая, пт
пт1423:00+16зсз11555 0.0 102711
02:00+15зюз11600 0.0 102711
05:00+13зюз216535 0.0 102710
08:00+20зюз244942 0.0 1027253
11:00+24зюз35365 0.0 10261952
14:00+26з45283 0.0 10242593
17:00+26з46275 0.0 10242636
20:00+22з37425 0.0 1023188
15 мая, сб
сб1523:00+16зюз28572 0.0 1024114
02:00+15зюз210675 0.0 1023173
05:00+14зюз3107395 0.0 1024185
08:00+19зюз385249 0.0 1023320
11:00+24зюз5740100 0.0 10221035
14:00+27зюз58295 0.0 10212167
17:00+27з68284 0.0 10202220
20:00+23з511395 0.0 1019865
16 мая, вс
вс1623:00+19зюз414515 0.0 1019481
02:00+17зюз414596 0.0 1019334
05:00+14зюз39715 0.0 1020186
08:00+20з375151 0.0 1020341
11:00+26зюз473212 0.0 10191378
14:00+28зюз462538 0.0 10192440
17:00+28зюз57245 0.0 10182769
20:00+23зюз25425 0.0 1018101